Location: LDNL
(36.4545°S, 141.6685°E)
Time: 10:52:09
(UTC+10:00)

Tiros 1 despin weight - Pass Details

Date: 17 August 2022
Orbit: 590 x 639 km, 48.2° (Epoch: 23 September)

Event Time Altitude Azimuth Distance (km) Brightness Sun altitude
Rises 21:36:50 0° 318° (NW) 2,851 - -43.6°
Reaches altitude 10° 21:39:08 10° 321° (NW) 1,962 - -44.0°
Maximum altitude 21:43:34 59° 40° (NE) 721 - -44.8°
Drops below altitude 10° 21:48:07 10° 119° (ESE) 2,012 - -45.7°
Sets 21:50:30 0° 122° (ESE) 2,933 - -46.1°
